カタログに戻る

SL-8 DEB *

運用中LEO
NORAD 18502·DEBRIS·🇷🇺 Russia

打ち上げ Jun 1, 1982 から Plesetsk Cosmodrome

Loading…

次のパス (今後24時間)

TLE

最新Source: Space-Track

元期: Sep 14, 2026, 12:59 UTC

1 18502U 82051D   26257.54154259  .00000998  00000-0  20733-3 0  9993
2 18502  74.0585 316.2520 0000434 278.9694 148.4774 14.61484805184573

AllMySatでSL-8 DEB *をリアルタイム追跡

Download on the App Store